GFSSW_925_spd_075.txt.gz
Wind_Speed
21 22 21 21 22 22 23 23 23 24 23 23 22 23 24 24 22 5 11 5 9 16 14 12 11 10 9 14 12 14 10 4 6 9 5 8 7 4 3 10 3 3 7 19 22
22 22 23 22 22 22 22 23 24 24 24 24 23 24 24 26 15 17 9 8 9 19 17 15 11 8 8 9 6 12 9 6 5 6 6 8 5 5 7 10 6 9 8 19 22
22 23 24 24 24 24 23 23 24 24 24 25 24 24 24 22 13 3 7 10 13 18 13 13 8 9 14 12 9 10 11 7 5 7 3 2 8 3 5 10 10 12 13 17 20
21 22 24 25 24 24 25 25 24 24 24 24 24 23 21 7 5 4 4 11 17 18 13 12 11 12 14 11 4 9 12 6 4 3 5 5 4 7 7 7 3 9 16 18 18
23 24 25 25 25 25 25 26 25 25 24 24 23 20 11 9 9 4 11 15 21 14 16 11 11 11 15 14 11 13 10 10 12 5 6 12 9 5 7 7 5 12 16 18 17
24 24 26 27 28 27 26 26 26 25 24 24 20 15 9 15 4 8 15 22 19 17 17 14 11 9 15 17 15 18 13 15 16 9 5 9 10 10 6 7 8 13 16 17 17
24 25 26 27 28 29 30 27 26 25 24 21 16 7 12 14 2 10 17 22 18 15 13 14 16 15 13 12 17 14 17 17 17 2 5 6 13 11 7 11 10 14 15 16 16
24 25 26 28 28 29 30 28 28 24 21 15 9 7 10 3 8 14 18 19 18 14 15 10 9 14 16 15 16 18 17 15 12 4 8 7 7 12 7 13 12 14 15 15 17
25 25 25 27 29 29 30 28 26 22 13 7 5 10 17 6 13 18 20 20 20 16 16 11 12 14 16 17 16 18 16 17 17 6 4 7 15 8 4 6 11 14 14 15 16
27 28 27 27 27 29 29 24 22 14 7 8 12 8 18 14 16 19 22 21 15 16 14 14 15 16 15 15 15 18 17 15 14 7 6 14 16 13 8 6 11 12 16 16 16
27 29 29 28 28 26 23 12 8 7 17 16 7 13 3 8 6 13 17 21 18 17 18 20 16 17 20 19 20 18 20 17 16 11 11 14 18 17 13 12 10 11 14 15 17
27 28 32 30 28 13 11 9 6 8 11 18 21 21 20 7 7 15 20 16 20 21 20 19 19 19 18 16 14 15 15 18 17 18 18 13 19 14 12 13 11 11 15 15 16
28 29 31 31 19 5 12 9 4 12 8 20 23 23 23 23 20 17 19 21 20 22 22 20 20 18 17 14 14 18 18 17 17 17 19 12 18 17 19 14 6 7 7 14 16
27 29 30 34 9 16 9 3 8 8 7 21 25 23 23 19 24 26 23 21 23 22 19 20 19 19 11 14 15 19 16 17 17 14 13 17 15 17 8 9 9 7 9 10 13
28 30 28 22 16 11 9 10 11 6 7 10 25 12 25 25 19 24 31 20 25 22 18 19 19 18 20 18 18 17 14 15 13 14 17 20 12 12 11 7 11 10 6 3 4
29 30 32 10 14 15 14 12 9 8 11 10 5 11 18 24 27 25 25 27 20 25 22 22 19 18 16 17 20 18 15 15 14 15 14 18 17 16 13 1 7 6 8 6 2
30 31 27 15 9 6 13 11 8 12 12 20 12 15 21 24 25 26 21 21 22 22 24 25 21 15 11 17 16 18 15 11 13 13 13 17 18 16 6 6 2 7 8 4 1
34 30 14 13 8 9 12 10 16 15 22 3 6 12 14 17 21 26 25 22 28 29 20 22 21 23 17 18 14 17 17 13 15 12 12 17 9 10 10 5 4 6 3 1 6
32 16 14 10 7 9 8 13 16 17 6 13 15 13 19 21 11 20 24 25 26 25 26 21 22 22 27 20 19 18 17 20 19 17 12 12 11 9 5 10 8 6 7 4 8
21 17 14 4 5 10 9 16 18 20 7 7 14 22 15 18 16 20 17 22 26 26 25 24 22 16 18 15 20 22 15 11 11 16 16 13 12 8 8 5 13 11 9 7 9
10 5 6 2 8 8 11 16 17 22 5 12 17 14 14 10 10 16 16 18 18 24 23 22 20 17 16 12 19 15 16 14 17 15 12 13 8 12 9 12 10 9 9 10 11
9 5 5 7 7 9 12 17 11 16 12 14 14 14 15 15 11 18 14 6 4 12 16 18 16 12 18 17 17 20 20 20 13 15 13 12 13 10 10 10 7 10 10 10 11
5 8 5 6 7 9 10 11 8 13 16 17 15 17 16 16 11 15 15 10 5 9 6 17 18 14 18 16 15 11 16 16 20 17 19 13 6 9 10 12 7 9 11 10 11
5 4 6 7 11 11 7 8 12 13 12 16 17 16 15 16 13 10 10 3 2 9 11 7 12 16 16 19 16 22 19 18 16 11 14 17 10 13 10 8 8 8 10 11 12
5 3 7 4 8 10 5 5 9 11 10 11 11 18 17 16 17 16 14 12 8 5 3 6 12 17 17 21 17 19 21 23 23 18 17 7 19 16 8 10 9 5 7 9 10
5 5 11 12 11 10 7 8 7 7 16 12 13 16 15 18 18 15 14 12 10 7 6 3 8 14 13 18 16 19 13 19 22 19 18 12 11 13 4 12 12 10 5 6 7
8 12 6 11 11 11 4 9 7 8 13 14 15 11 13 15 15 19 15 7 6 7 6 5 8 7 16 18 14 18 18 14 10 15 9 4 13 13 12 12 11 10 9 6 1

GFSSW_925_spd_078.txt.gz
Wind_Speed
22 22 22 23 23 23 23 24 25 24 23 25 24 25 27 29 28 10 10 10 12 9 10 8 13 15 17 15 17 14 7 9 13 11 9 6 6 11 13 4 9 6 12 20 22
24 24 24 24 24 24 24 24 24 25 25 25 26 26 28 28 21 18 18 11 9 11 12 13 11 13 11 17 11 8 10 20 7 6 12 18 2 12 17 19 9 10 18 23 23
24 25 25 26 26 26 26 26 24 24 24 25 26 26 27 26 11 6 14 13 12 13 14 14 14 11 14 18 15 13 8 8 6 8 10 18 10 16 25 15 12 16 18 19 21
24 25 27 27 26 27 27 28 25 25 23 24 25 26 23 8 7 6 7 10 11 15 17 15 15 15 16 20 14 7 13 10 11 3 5 7 4 6 2 9 11 21 21 20 19
24 24 26 27 28 28 28 28 27 26 25 23 23 23 14 9 17 2 7 9 13 15 17 15 15 17 15 18 19 11 13 11 10 14 3 4 11 4 4 9 10 21 20 20 18
24 25 26 28 28 29 28 28 27 26 26 24 22 18 7 16 2 4 11 16 16 17 18 17 14 16 14 17 17 20 18 15 17 17 11 8 10 8 10 8 13 17 18 18 18
25 27 28 29 30 29 30 29 28 26 25 23 19 9 11 18 10 5 13 15 19 19 17 19 17 17 17 20 18 16 18 16 20 17 11 2 12 0 8 9 13 15 15 17 16
27 28 28 30 30 31 32 29 28 25 24 20 16 7 9 19 16 18 16 16 18 18 18 17 17 13 17 18 21 20 19 16 21 15 7 6 6 3 15 13 14 17 15 15 16
29 30 30 31 30 31 34 31 26 25 21 13 8 10 18 2 18 20 19 21 20 21 20 16 15 14 16 17 16 16 17 20 20 11 8 10 5 10 17 16 14 15 16 16 15
30 31 31 31 31 34 35 29 23 25 9 8 16 11 20 19 22 21 22 23 19 17 16 17 14 14 15 14 15 19 19 21 16 9 11 15 12 4 13 13 16 15 17 16 17
30 32 33 32 31 32 32 17 6 6 10 15 14 17 20 23 20 24 25 21 21 18 18 18 15 16 21 20 21 18 20 21 18 16 15 11 12 12 14 13 13 15 18 17 18
30 33 33 34 32 25 15 8 13 10 13 18 22 27 34 29 15 17 19 21 21 21 20 19 20 21 21 21 20 18 19 17 19 15 16 16 19 11 18 15 9 12 16 21 19
30 33 33 35 27 13 14 19 13 15 11 24 23 22 25 28 18 19 24 21 18 23 22 22 21 22 23 17 18 18 15 17 16 17 16 16 19 11 17 17 17 11 8 17 18
29 31 31 36 14 20 18 9 13 16 9 22 24 32 28 29 29 24 25 24 23 25 24 22 23 23 21 21 16 20 15 19 18 15 12 14 14 15 17 14 15 7 8 7 17
30 31 30 29 17 10 17 17 16 13 7 13 22 37 31 32 29 26 33 25 26 27 22 24 22 20 20 19 18 17 15 18 16 15 16 16 10 14 5 16 9 9 12 2 3
32 32 35 15 15 19 18 17 14 7 14 12 24 14 27 28 29 30 24 28 23 26 24 26 23 20 19 17 20 13 16 18 14 15 13 16 15 14 15 7 10 10 6 9 6
35 34 35 17 10 15 14 10 6 10 11 22 23 8 16 19 26 28 29 27 24 23 23 26 27 23 21 14 14 16 17 12 13 12 13 19 17 12 9 14 13 12 10 6 5
40 35 20 14 9 12 13 8 13 11 21 24 25 16 21 21 22 24 26 26 28 28 20 21 22 25 24 18 14 19 18 13 14 14 15 15 13 12 19 12 17 7 6 6 4
40 20 16 15 10 7 7 11 13 15 23 17 25 17 13 15 12 23 27 26 29 24 23 20 26 22 26 22 18 19 16 16 18 19 14 13 6 7 9 6 7 8 14 11 11
23 17 16 9 4 7 7 14 20 20 24 18 17 12 14 15 19 17 17 23 27 27 25 23 23 26 23 23 24 21 15 14 12 16 16 15 13 6 15 10 17 15 13 11 10
10 6 7 4 5 5 9 14 17 21 21 13 15 18 20 22 14 11 11 18 20 26 25 25 19 22 22 19 20 15 17 17 18 12 12 13 3 9 11 10 13 14 13 12 12
9 5 7 5 6 7 11 18 17 21 18 13 14 16 20 20 14 10 21 14 29 18 25 26 18 15 25 15 24 17 17 20 12 13 13 13 7 10 3 5 15 14 14 13 13
5 9 7 7 7 8 13 17 16 15 13 15 16 19 17 17 17 17 19 3 18 18 11 10 13 13 18 18 13 17 21 17 17 13 18 13 3 8 7 7 9 14 13 12 14
5 4 5 6 11 13 15 14 9 11 13 14 17 19 18 17 16 17 19 18 2 14 11 7 9 9 13 17 13 13 21 20 16 9 14 16 13 6 4 9 1 12 12 12 11
5 4 12 6 6 12 12 10 12 11 13 8 12 14 16 17 17 19 20 18 15 3 7 5 9 13 16 21 20 17 14 20 18 19 16 7 9 17 15 16 8 8 10 11 11
5 10 12 13 14 15 13 11 15 12 8 12 12 15 15 15 17 19 19 18 13 5 15 18 10 11 17 16 18 16 17 18 20 22 20 16 14 21 15 10 8 1 8 11 10
17 15 8 11 14 12 4 7 18 13 11 7 14 14 20 15 17 16 19 20 17 4 3 9 11 8 15 18 18 14 18 22 11 8 11 16 15 13 14 10 12 5 5 7 7

GFSSW_925_spd_084.txt.gz
Wind_Speed
25 25 26 25 26 26 26 26 24 25 25 27 27 26 27 29 28 12 7 12 5 11 10 16 15 17 12 5 10 5 2 8 14 9 5 6 7 1 2 9 5 9 8 18 29
27 27 26 27 27 27 27 28 26 25 25 26 27 27 29 32 21 10 9 10 8 10 14 18 9 11 5 7 7 6 4 11 17 20 11 9 11 10 6 6 3 9 13 32 28
26 26 27 29 29 29 30 30 27 26 25 26 26 26 28 25 6 6 7 9 12 12 11 8 9 4 8 4 5 6 7 11 16 14 13 15 8 6 11 5 8 21 24 19 21
26 27 28 29 29 30 31 31 30 28 25 26 26 25 22 10 5 1 8 5 12 11 10 4 3 4 4 3 5 6 9 6 7 3 4 9 7 6 13 10 14 23 29 21 17
28 29 30 30 30 31 32 31 31 29 27 26 24 23 9 4 10 18 19 10 13 13 10 4 3 3 5 5 9 5 6 11 16 13 5 11 14 11 17 9 18 20 22 22 19
27 29 30 30 31 32 33 33 32 31 30 27 24 18 1 6 8 13 11 12 13 15 7 9 6 4 6 5 4 6 8 14 14 14 8 11 7 7 12 12 20 22 20 20 22
30 31 31 31 32 33 34 34 33 32 31 28 22 8 3 17 3 4 14 12 14 15 5 16 18 1 7 9 6 6 10 14 16 7 8 7 8 8 8 24 23 22 21 20 20
32 33 33 34 34 35 36 36 33 33 34 27 14 4 7 24 22 24 25 23 18 16 18 17 16 5 3 5 9 7 3 6 8 9 11 2 14 9 16 22 22 23 21 20 21
34 35 38 38 37 38 40 35 31 33 22 6 2 5 8 17 10 24 29 22 23 21 21 20 10 7 4 3 6 7 6 12 15 12 8 13 11 7 15 20 21 22 21 21 20
33 34 37 39 39 41 40 34 17 7 8 5 1 2 8 8 8 14 18 27 8 6 5 5 2 3 2 4 6 7 7 7 11 20 12 13 10 5 14 20 23 22 21 21 21
32 36 37 39 38 40 31 17 8 5 13 7 19 13 19 36 36 19 19 9 16 4 8 7 1 7 12 10 9 8 9 13 18 22 4 13 9 7 11 14 17 20 20 21 23
33 36 39 40 41 22 22 3 4 13 11 14 18 21 28 30 16 28 24 5 7 16 6 1 10 16 13 9 11 12 13 18 19 18 7 8 8 9 8 9 12 20 20 23 19
33 35 39 41 32 6 26 8 27 31 4 11 11 10 11 14 21 27 4 4 10 14 14 13 20 12 10 13 13 13 8 15 14 19 3 1 8 7 8 3 6 10 22 23 22
33 35 38 45 9 31 15 24 26 18 5 8 5 7 3 4 7 22 27 10 6 21 17 14 16 11 12 14 11 10 17 16 16 6 6 4 5 8 8 10 7 11 12 18 21
32 35 37 36 19 9 14 25 28 3 4 5 6 1 2 8 4 8 31 7 11 7 8 16 14 9 10 18 12 12 16 17 17 5 3 7 3 8 4 8 6 7 13 19 22
33 35 40 20 18 17 17 25 7 5 6 6 6 15 26 17 5 5 2 6 7 11 3 12 10 14 19 20 12 13 6 1 4 4 3 5 4 12 5 6 5 5 10 18 21
34 36 39 20 6 10 17 4 5 2 6 6 17 16 19 15 7 6 6 3 5 4 4 5 6 11 12 8 11 3 5 5 3 3 7 4 1 14 11 7 8 10 12 19 23
38 39 27 19 12 8 8 5 2 4 7 10 9 16 6 16 15 5 7 9 5 5 5 6 11 8 13 10 11 8 8 6 7 4 7 6 6 15 11 19 16 8 11 9 13
38 27 14 1 4 3 5 3 6 4 4 9 17 4 11 18 6 10 6 8 9 7 9 5 13 6 11 16 8 10 4 9 6 2 3 3 9 10 8 1 11 9 8 9 10
25 14 13 2 8 6 4 5 5 4 8 10 6 4 12 9 10 10 7 6 8 3 4 1 4 11 19 9 17 8 4 1 2 3 7 5 5 6 7 4 8 8 10 6 11
9 4 4 16 16 5 2 6 7 10 8 3 8 7 6 4 4 7 7 8 8 12 3 6 6 13 8 9 12 2 3 2 3 5 6 2 6 4 9 3 8 6 7 11 12
6 3 5 18 3 0 2 5 5 17 21 8 6 4 1 4 5 5 5 5 16 7 6 4 2 5 18 16 8 11 11 7 6 7 3 5 5 4 6 4 10 9 7 9 8
3 3 7 6 2 3 6 7 6 10 12 4 5 1 2 3 4 5 6 10 11 6 6 6 2 5 8 9 4 5 6 6 5 3 8 6 6 3 4 9 10 15 13 9 8
2 3 4 4 1 4 5 7 11 10 7 9 4 6 6 6 2 5 8 8 13 7 11 10 1 5 4 10 8 5 3 7 7 2 5 7 5 3 2 11 7 10 13 10 11
1 4 1 3 4 7 2 5 6 8 5 6 9 13 3 5 7 8 6 12 17 6 9 4 4 1 7 5 8 5 4 7 11 3 3 8 11 4 8 11 9 9 9 12 13
0 3 4 3 4 6 5 5 8 7 4 10 6 16 7 4 4 8 5 3 4 19 4 2 7 4 6 12 13 8 15 12 10 6 3 2 2 6 4 5 13 15 12 10 10
3 5 3 4 4 3 2 11 17 13 9 8 5 5 5 8 12 12 10 11 11 6 5 4 2 1 5 6 6 9 8 9 7 7 3 2 4 8 10 3 4 5 6 7 6

GFSSW_925_spd_087.txt.gz
Wind_Speed
26 26 25 25 25 25 27 26 25 25 25 25 24 24 26 27 28 15 7 8 9 16 15 20 13 6 9 3 4 4 2 3 4 4 6 2 5 5 2 12 5 9 6 9 27
27 27 28 29 28 27 28 27 26 26 26 25 25 25 25 28 21 9 2 6 9 19 23 19 8 9 3 5 4 5 4 7 8 9 9 9 6 7 6 7 4 4 5 28 32
27 28 28 29 29 30 31 29 28 27 26 26 26 25 24 21 4 6 7 11 14 17 16 17 9 10 4 6 6 6 5 8 12 11 7 11 10 3 8 5 7 15 17 21 27
27 28 29 29 30 31 32 31 31 30 28 26 25 24 22 6 4 2 6 5 14 16 11 7 5 4 5 7 6 3 7 9 8 3 7 8 11 6 11 10 13 16 25 21 23
28 29 30 31 31 32 32 32 31 32 30 27 24 19 8 4 9 15 17 9 11 19 12 6 7 6 5 4 3 7 6 5 9 9 7 4 13 7 13 4 14 17 20 20 21
31 32 33 33 34 34 35 33 32 32 31 28 24 13 1 5 5 8 4 2 8 13 6 9 6 8 4 4 3 4 6 7 7 15 5 6 6 7 10 9 14 19 21 19 20
33 35 37 38 38 39 39 37 34 34 31 28 20 2 4 17 5 8 20 16 19 17 5 11 12 3 1 4 4 3 8 8 7 2 2 8 3 10 9 16 19 20 19 20 18
33 35 35 37 39 40 41 40 35 34 28 19 5 8 7 20 19 24 27 21 20 15 18 17 9 4 4 5 5 2 4 5 4 10 6 8 9 19 13 21 19 19 19 19 20
31 33 35 37 41 44 41 35 22 13 14 6 4 3 8 11 8 15 10 12 11 25 16 11 3 6 3 1 4 5 4 5 12 7 1 5 13 18 8 23 21 20 19 18 15
31 34 37 38 40 45 30 20 12 5 14 4 1 2 6 6 10 24 27 20 8 3 3 4 4 3 3 4 7 7 5 5 7 6 8 12 12 9 9 14 19 20 17 17 17
31 35 38 39 43 33 32 9 6 6 6 4 14 8 23 34 26 6 7 14 4 4 7 6 5 7 11 10 4 5 4 7 9 10 2 12 12 20 10 12 16 13 15 17 21
32 35 38 40 42 14 28 5 7 4 12 10 20 17 30 16 9 23 12 8 5 10 5 5 9 8 8 5 6 5 5 9 8 14 6 10 14 11 6 19 15 17 17 20 20
32 35 38 39 29 11 18 4 17 15 3 9 5 5 7 8 9 23 8 6 5 5 7 16 10 8 5 6 6 6 6 11 10 10 6 7 7 7 6 6 8 12 17 19 21
32 34 36 41 8 25 11 18 24 5 5 7 7 6 3 4 6 12 17 10 6 9 9 13 10 9 5 8 7 8 9 12 11 2 9 5 7 6 6 8 7 11 17 20 20
32 33 34 36 19 9 10 22 22 3 3 3 6 5 9 5 8 5 6 7 16 9 4 8 9 9 13 20 6 13 4 8 9 6 1 3 2 7 4 9 10 10 13 20 24
33 32 38 19 14 12 17 21 4 5 4 6 5 12 12 3 5 7 4 3 6 5 3 9 8 8 12 10 9 8 3 6 5 2 3 6 7 5 5 8 6 6 10 10 15
34 35 36 16 5 9 17 4 5 3 5 7 6 13 8 10 9 4 1 4 5 5 3 5 6 4 6 3 2 4 6 5 5 3 8 7 3 8 4 7 12 15 13 8 12
38 34 24 15 8 6 6 5 2 2 5 5 6 11 5 11 8 8 6 3 3 4 2 4 8 6 3 8 9 6 9 6 5 6 10 1 6 7 8 11 9 13 13 6 8
35 25 10 3 4 4 5 4 5 4 4 7 10 4 6 6 2 9 8 8 7 2 2 4 8 5 3 6 9 6 5 7 4 2 2 4 8 10 7 12 8 12 10 11 10
25 14 10 1 9 4 5 3 3 4 6 2 3 2 6 7 8 9 10 5 11 6 1 6 2 3 5 2 6 7 6 1 1 2 4 5 5 6 11 10 10 4 9 4 5
8 4 7 7 4 5 2 5 6 8 5 4 6 4 7 4 2 5 6 7 7 9 6 2 5 8 3 6 8 0 3 2 6 4 5 4 7 7 6 6 6 7 9 10 11
5 3 5 7 3 1 1 4 6 9 5 7 5 7 5 3 4 2 3 4 9 5 6 3 4 3 8 10 8 7 9 6 5 6 3 3 7 3 5 3 10 11 8 13 14
2 3 3 3 0 2 5 5 5 5 7 6 4 3 3 2 4 2 6 7 12 6 5 4 3 4 10 8 7 3 5 6 6 3 6 5 8 4 5 7 7 16 10 10 12
2 3 4 4 1 2 4 5 5 7 5 4 4 5 6 4 3 4 7 5 13 8 1 5 3 4 4 9 6 7 6 8 8 4 3 6 8 2 5 6 5 2 19 18 14
1 2 2 3 3 3 2 3 6 6 3 6 5 5 2 3 7 6 4 8 11 2 4 3 2 4 8 14 9 10 13 9 7 6 5 4 5 5 4 8 9 10 15 8 12
1 2 4 3 4 4 3 4 3 7 4 7 4 9 4 4 4 6 2 3 6 7 7 3 3 2 6 11 3 9 17 8 8 3 3 6 4 6 7 12 13 15 18 17 10
1 1 3 3 4 1 2 3 4 8 2 6 5 3 4 4 6 12 10 9 9 4 2 3 3 8 13 9 6 4 10 7 3 6 5 2 2 4 13 14 14 17 22 22 21

GFSSW_925_spd_093.txt.gz
Wind_Speed
25 26 25 26 26 26 26 26 25 24 23 22 21 20 21 22 24 11 7 5 8 19 26 23 14 15 14 5 6 1 3 2 3 4 7 4 4 4 3 7 7 11 4 2 23
26 27 27 27 27 28 28 28 27 26 25 23 21 19 20 21 15 10 2 5 7 27 23 23 14 17 5 5 4 4 3 4 3 7 8 14 11 10 8 12 9 7 5 13 23
27 26 28 28 29 29 30 29 30 28 26 23 20 19 18 16 5 3 7 5 16 27 19 14 17 7 4 3 6 6 5 6 8 12 13 12 15 5 11 11 13 16 13 17 19
28 29 30 30 30 30 30 31 31 28 25 22 19 17 15 5 5 3 3 3 16 20 19 15 12 7 5 7 6 6 12 13 6 7 5 10 12 4 15 21 10 13 20 22 22
29 30 31 32 33 34 32 34 32 25 26 22 16 11 5 2 8 7 5 9 26 15 16 10 10 6 7 6 8 12 14 11 13 12 9 10 12 10 15 13 2 11 19 22 22
29 30 31 33 35 35 33 36 25 26 23 20 16 6 3 6 4 4 1 15 13 8 7 7 7 8 6 9 10 8 11 17 11 12 8 8 4 5 4 9 10 15 20 24 26
30 31 32 33 35 35 37 26 29 21 15 15 10 7 3 12 2 6 7 7 4 11 6 9 11 6 0 6 6 9 13 16 15 9 11 6 8 6 7 4 12 17 21 21 24
30 31 33 34 35 36 31 30 25 9 9 7 6 6 6 3 3 12 15 11 11 14 16 15 12 9 6 7 6 4 4 12 12 4 1 4 17 9 3 7 10 18 17 18 25
29 31 34 36 36 38 30 28 11 1 5 5 3 1 5 3 4 4 7 6 4 4 7 2 6 6 5 7 8 6 13 13 13 1 3 3 9 15 7 9 13 16 17 16 19
29 32 34 36 36 30 28 11 4 3 3 2 1 2 5 2 2 4 8 6 3 4 4 6 6 8 7 9 13 12 13 11 12 8 5 12 15 17 14 13 16 14 15 19 19
29 33 35 36 38 19 25 4 4 0 5 2 5 5 8 10 11 4 5 10 4 2 5 7 8 15 18 18 19 16 12 12 5 9 11 17 15 14 20 17 17 13 16 20 24
29 32 35 34 32 16 10 5 5 3 7 2 5 7 10 4 4 4 6 6 8 13 8 6 16 11 16 19 15 15 16 13 9 11 6 12 20 19 16 11 13 11 15 20 17
29 31 34 34 17 14 6 9 6 1 3 6 4 4 6 3 5 4 8 4 7 11 14 16 10 11 16 17 15 18 19 12 11 8 9 11 11 8 13 13 11 11 11 13 19
28 29 34 38 4 16 3 1 18 7 2 7 3 1 1 2 5 5 8 3 3 7 10 11 13 15 15 17 16 18 15 16 9 8 11 2 13 11 13 10 10 14 8 13 16
27 29 34 30 14 4 1 13 6 2 2 11 5 2 13 2 9 0 2 3 6 5 5 7 7 14 16 20 17 16 7 10 10 9 4 13 6 9 8 12 12 10 11 12 15
28 32 36 12 9 5 9 10 4 3 1 4 5 8 10 3 3 6 1 2 0 4 9 10 5 5 9 11 17 14 8 2 2 4 7 14 8 7 7 7 6 9 10 13 15
30 32 21 8 2 9 12 1 2 1 2 6 5 9 8 5 8 8 7 3 3 5 3 6 15 13 10 12 6 10 8 5 6 5 9 4 6 7 16 15 16 14 10 10 12
30 25 9 5 10 9 3 1 1 1 2 3 5 8 3 7 3 9 8 7 5 2 5 4 4 9 9 12 7 12 12 6 5 7 11 3 7 3 9 14 12 12 13 15 15
27 12 3 11 5 5 1 2 2 1 2 6 6 2 3 3 4 6 5 4 5 10 6 4 4 3 8 3 8 3 4 10 3 3 5 5 6 10 7 11 6 9 14 16 16
20 8 5 4 6 3 1 2 2 3 2 1 2 2 3 4 5 6 6 3 8 11 5 1 6 5 2 4 5 4 7 4 4 6 13 13 16 11 16 15 16 15 14 13 12
6 2 4 8 6 2 2 0 3 4 5 4 2 3 4 3 4 3 4 5 10 15 9 4 3 5 3 3 6 4 4 2 4 1 12 14 13 4 9 10 12 11 11 11 8
4 2 4 8 1 1 1 1 3 3 0 3 3 4 3 3 4 3 3 3 12 13 8 3 3 5 6 4 5 1 4 2 6 6 8 8 17 1 6 6 8 10 10 8 5
3 3 4 3 2 2 1 2 3 3 3 2 2 1 0 2 3 2 4 6 8 11 8 8 2 6 6 4 3 3 5 6 8 6 15 12 13 4 6 7 8 9 9 7 5
2 1 1 3 2 2 0 1 3 2 3 3 3 2 3 2 2 4 6 4 12 9 3 3 2 4 7 5 4 5 6 6 8 7 12 13 14 4 7 8 8 9 10 9 8
2 1 2 1 2 1 1 1 2 3 2 3 2 3 3 3 4 3 5 11 9 3 4 6 5 4 10 13 9 7 7 1 3 9 12 16 10 2 4 6 7 7 9 11 9
1 1 1 0 2 2 3 4 4 2 2 1 3 10 5 5 3 8 8 8 8 5 5 3 5 7 14 8 9 12 1 5 6 5 7 12 6 3 6 3 6 9 10 11 10
1 0 2 1 1 3 2 3 5 2 4 6 5 8 8 6 8 17 16 18 17 12 7 4 4 5 12 5 12 7 2 2 3 3 6 7 5 4 5 6 9 10 9 11 11

GFSSW_925_spd_096.txt.gz
Wind_Speed
25 25 25 25 25 25 25 25 25 24 22 21 19 18 18 20 22 8 9 6 8 21 23 19 14 12 13 7 9 7 6 5 1 3 4 5 9 5 3 6 8 8 3 5 20
26 27 26 26 27 27 27 27 28 27 24 21 18 16 15 19 11 15 10 8 8 31 26 25 18 17 8 8 5 8 8 6 4 5 8 10 10 11 6 7 10 10 8 13 24
26 26 26 27 28 28 29 28 30 30 24 21 18 15 13 13 9 3 1 8 12 27 18 15 12 14 12 8 9 6 13 8 11 10 12 13 12 8 8 10 11 14 14 17 26
26 27 28 28 28 29 29 28 32 27 23 23 20 13 9 3 5 3 3 1 18 20 17 14 14 15 12 11 11 11 15 13 17 15 16 15 16 14 8 13 2 10 18 21 23
26 27 28 29 30 30 30 32 28 24 25 22 19 10 2 7 10 1 2 10 22 16 20 15 14 13 13 8 11 15 19 17 17 14 13 16 17 17 17 9 7 9 20 22 22
26 28 29 31 31 33 32 33 27 26 21 16 14 4 7 11 3 2 8 20 16 16 18 17 8 8 11 14 14 14 15 17 16 19 14 17 18 13 15 3 10 11 17 19 22
26 28 30 31 32 30 34 27 28 22 10 12 9 6 8 9 2 6 10 14 10 14 10 15 11 10 4 12 10 13 17 18 19 17 18 15 21 17 14 2 9 12 13 16 19
25 27 29 32 33 34 28 28 22 6 4 8 3 3 4 3 3 12 12 12 12 13 14 13 11 14 17 13 14 16 13 14 16 13 11 10 17 14 4 6 7 8 11 15 20
24 26 31 34 32 35 29 23 6 3 2 3 0 5 2 3 5 3 9 12 10 10 11 8 11 14 12 15 16 15 15 18 15 10 6 12 18 16 5 10 13 14 12 14 18
26 27 33 34 36 26 27 5 4 2 3 3 4 5 4 3 4 4 5 6 3 6 8 12 9 13 15 15 18 20 19 19 17 17 14 15 19 15 19 18 17 16 15 12 19
28 31 33 35 38 20 21 5 4 5 1 5 5 4 2 11 3 4 5 12 16 10 14 15 14 20 22 21 22 23 23 23 19 10 17 15 20 17 16 21 19 19 14 14 19
29 30 33 33 25 16 11 5 6 5 6 2 5 7 6 4 3 3 5 7 10 15 13 11 16 20 22 19 22 24 24 24 22 16 20 18 21 16 17 22 17 21 14 14 13
28 28 33 36 13 10 8 7 5 4 6 2 3 5 5 4 4 1 5 2 9 13 14 16 18 4 12 18 23 25 23 23 24 20 18 17 22 21 15 16 16 17 15 13 15
26 28 33 36 3 10 1 2 11 4 5 3 3 3 3 5 3 2 3 6 4 8 7 12 13 16 16 17 18 21 20 24 22 21 17 17 14 17 13 17 14 15 13 13 14
27 29 34 22 10 4 3 10 5 3 5 3 2 2 8 4 7 4 2 5 8 9 6 9 6 11 15 18 16 19 19 22 20 20 19 23 12 13 13 14 15 17 15 13 14
27 30 30 6 4 5 8 9 3 5 2 2 3 4 3 2 2 3 2 5 4 8 9 14 11 9 13 9 12 14 15 15 14 14 15 16 18 15 13 8 13 16 13 11 9
29 28 15 3 4 8 8 4 5 4 3 3 3 6 6 3 1 5 5 5 5 6 5 14 7 9 13 14 14 10 14 12 13 13 13 15 13 8 10 14 8 12 13 9 7
28 19 5 3 7 8 4 5 5 2 1 2 4 8 4 6 1 5 3 3 8 7 10 7 10 4 9 15 14 7 14 10 14 10 9 20 10 11 14 9 5 5 7 9 13
24 7 3 4 4 4 6 6 3 1 2 5 6 6 2 0 4 4 3 4 6 10 7 9 6 4 8 12 11 6 6 9 10 12 10 13 22 17 13 12 7 11 10 10 11
15 7 2 3 4 7 5 3 2 1 3 3 3 2 3 3 5 4 2 5 6 10 8 5 10 7 6 6 10 10 4 8 6 11 14 9 17 13 14 17 10 14 11 11 10
5 4 3 5 4 6 6 1 3 2 3 3 1 3 3 4 6 6 2 1 11 12 12 9 7 13 9 7 9 7 12 11 13 8 15 11 11 11 12 10 13 10 11 11 10
5 4 2 4 5 2 5 1 1 3 3 2 3 3 3 4 7 4 5 5 10 14 11 7 7 10 17 4 5 6 5 9 10 11 13 14 17 10 1 6 7 8 8 8 6
5 4 0 3 5 6 3 5 3 4 2 3 4 2 1 4 5 3 7 6 6 14 9 9 7 10 14 11 9 4 3 7 8 10 16 16 13 4 2 3 7 9 10 6 5
4 3 4 4 3 7 4 6 5 3 5 3 5 6 6 9 6 7 12 6 9 14 4 6 11 12 14 17 13 11 7 5 9 11 16 13 16 19 9 10 10 10 9 10 6
2 1 3 1 4 6 5 2 7 6 4 5 5 6 6 8 11 13 9 14 15 7 6 5 12 16 15 17 17 17 15 15 13 13 12 14 17 19 9 10 10 7 5 8 10
4 4 3 3 3 6 5 8 12 6 5 6 8 4 6 8 9 11 14 14 16 14 10 13 12 14 17 20 21 14 16 13 14 13 13 15 17 7 4 4 5 5 10 9 8
0 3 4 4 5 6 8 8 6 3 8 8 4 7 9 6 11 16 18 18 19 19 17 15 11 12 16 16 17 14 17 8 8 8 10 14 10 7 3 5 10 10 10 13 13

GFSSW_925_spd_102.txt.gz
Wind_Speed
24 25 25 26 26 26 27 26 26 25 24 24 21 19 19 21 22 10 11 9 10 14 10 9 16 19 19 18 19 20 15 9 6 15 24 14 9 9 9 14 7 3 15 24 32
24 25 26 27 27 27 27 28 26 26 25 22 20 17 18 20 18 21 20 17 11 10 13 16 15 17 14 18 15 15 15 15 22 24 15 21 9 9 8 17 14 10 18 29 35
25 26 26 27 27 29 28 28 27 27 23 21 20 17 15 14 11 2 9 11 12 11 17 20 18 14 18 18 20 22 17 20 20 39 17 14 10 8 13 6 26 17 10 22 23
27 27 26 27 29 29 29 29 30 24 22 21 17 13 10 4 5 6 7 3 6 13 16 21 16 17 17 18 21 21 22 20 18 20 22 20 16 12 12 14 15 29 31 23 21
29 27 26 28 31 31 30 34 26 23 22 19 12 8 3 8 13 7 3 4 7 14 17 17 16 16 18 17 20 22 21 20 19 19 19 19 19 16 14 12 4 31 32 24 20
30 29 29 31 32 31 33 30 26 26 18 10 5 5 5 12 1 6 6 7 9 15 17 18 15 15 20 19 21 21 23 23 22 22 21 21 22 19 18 15 4 9 22 21 19
30 29 30 31 31 31 31 25 26 16 7 4 6 4 11 15 3 5 8 9 15 17 16 16 17 17 18 18 20 22 23 20 20 21 22 21 21 22 21 18 14 14 11 18 18
30 29 29 30 30 35 26 24 16 8 3 3 5 6 7 0 7 8 11 13 12 18 17 20 17 17 19 19 20 23 25 21 22 23 23 20 19 20 20 17 12 5 15 15 19
30 29 30 32 32 28 25 21 10 5 3 4 3 9 8 1 6 7 11 12 11 13 12 12 13 15 16 16 18 19 21 24 24 22 22 20 19 17 15 14 10 25 13 14 17
31 31 32 33 35 24 25 16 10 6 6 7 13 9 9 2 1 4 5 9 11 14 15 13 12 13 15 15 16 20 20 21 23 21 23 18 19 18 13 19 19 11 11 11 13
32 32 33 33 30 19 29 8 3 5 14 12 4 10 1 4 4 8 8 7 8 9 13 14 12 14 18 20 22 23 25 26 23 22 23 24 24 19 17 15 17 16 13 14 15
32 32 34 33 22 15 13 9 9 7 10 16 8 8 7 4 5 7 6 7 12 11 13 13 16 21 21 17 18 20 23 24 25 22 21 22 24 24 22 20 18 20 17 15 16
31 31 34 35 14 10 6 9 9 11 6 11 11 8 2 6 9 7 9 12 11 13 14 15 17 16 16 13 17 19 17 20 21 20 21 22 25 22 24 22 20 23 20 15 17
32 31 33 34 7 14 5 12 12 8 5 9 8 7 6 7 9 6 5 7 11 13 11 10 14 10 11 15 16 20 18 18 18 18 18 19 18 16 19 20 22 23 24 23 19
31 30 32 13 13 8 12 13 12 6 5 7 10 6 3 6 6 12 1 7 13 14 13 15 17 14 14 14 14 18 17 17 18 19 20 22 14 14 16 15 15 24 26 17 18
31 29 30 4 8 9 14 14 9 5 3 6 2 6 13 14 10 4 9 10 12 13 14 17 16 16 15 8 13 13 15 15 18 17 14 17 3 9 12 14 15 18 19 29 18
33 29 24 13 6 14 14 9 6 6 3 4 0 3 8 8 9 8 9 10 6 6 13 16 14 12 2 10 13 14 14 12 13 12 13 12 7 11 11 16 8 11 22 27 20
36 27 14 12 10 13 13 8 6 9 3 6 8 10 13 14 4 13 6 13 8 5 11 11 4 10 5 9 10 14 13 8 17 14 18 17 9 10 12 4 9 13 21 20 17
37 16 8 9 7 7 7 7 7 11 7 9 13 13 15 7 4 7 11 13 5 8 6 10 15 21 15 21 7 16 15 18 13 17 15 10 10 17 11 5 2 14 20 20 29
24 17 18 9 5 8 6 10 15 5 8 11 12 7 12 8 3 11 4 2 2 2 7 12 17 18 20 19 15 19 14 15 12 14 17 8 9 5 10 14 12 15 15 16 26
8 6 10 7 5 6 9 14 13 5 2 7 11 11 11 10 9 10 9 6 7 5 10 15 15 15 14 15 15 10 11 10 7 8 9 15 6 12 20 21 24 23 24 23 18
10 6 9 6 7 8 11 15 5 7 6 7 8 11 13 12 8 12 12 2 8 5 10 13 12 13 18 21 21 11 5 8 3 6 9 10 8 14 15 19 13 16 19 11 19
5 10 11 5 6 10 14 18 6 11 13 10 9 8 9 7 7 9 9 9 8 6 6 7 7 12 13 16 8 9 18 2 7 7 9 9 14 5 8 11 11 10 13 19 18
5 5 7 7 10 14 15 14 12 11 10 13 12 13 12 9 13 11 14 10 8 8 7 5 13 16 13 18 21 19 19 15 11 11 13 15 14 9 15 19 11 13 13 3 4
4 5 10 7 9 12 11 13 15 15 11 8 10 12 14 13 14 12 15 15 13 11 7 10 14 15 18 21 21 22 23 25 20 22 19 20 4 7 3 6 8 16 25 3 5
5 7 10 12 14 14 12 15 16 16 16 13 9 14 14 10 8 14 15 12 11 15 14 14 14 15 20 21 22 24 24 21 22 23 21 12 15 7 3 5 6 10 16 3 6
14 11 7 9 13 13 11 13 15 12 13 15 11 14 12 7 11 14 14 14 16 18 17 15 12 13 18 20 20 18 21 18 13 18 10 11 8 12 8 5 6 3 5 7 6

GFSSW_925_spd_105.txt.gz
Wind_Speed
24 24 24 23 24 25 25 24 24 23 23 22 20 20 19 21 22 12 7 13 9 11 6 4 9 14 17 12 16 15 6 11 10 4 17 34 9 16 13 17 15 4 9 22 32
25 24 24 24 24 26 26 25 25 24 22 20 19 18 18 19 17 13 27 15 15 9 7 11 8 11 6 8 9 9 9 11 5 17 17 31 22 24 3 11 10 14 23 32 29
26 25 24 24 24 27 27 25 28 24 20 19 18 16 14 12 5 5 5 17 18 13 12 12 18 12 11 9 10 11 13 13 17 16 17 16 22 19 4 13 12 15 20 23 22
28 27 26 26 28 28 26 30 28 21 20 20 16 12 9 2 3 1 5 6 9 9 8 10 11 14 8 9 10 10 14 13 11 20 7 17 13 20 2 7 17 15 24 24 23
29 29 30 29 29 30 30 33 24 23 22 16 11 7 2 4 9 6 4 4 6 7 13 10 12 10 10 8 12 9 12 13 12 13 22 17 11 12 15 17 19 17 15 22 24
31 31 31 31 31 30 36 29 25 24 13 7 4 4 1 5 6 8 6 5 6 9 11 13 8 10 12 11 12 9 16 14 13 15 14 15 15 8 16 1 18 16 22 23 23
33 33 33 33 32 34 30 25 23 14 7 5 4 2 5 12 2 7 11 8 6 13 9 18 20 8 9 13 10 13 13 14 13 16 20 20 14 10 14 15 18 19 16 19 21
34 34 35 34 32 35 28 23 24 11 5 4 4 3 6 11 7 13 10 11 11 12 21 20 22 10 6 8 9 12 8 11 13 17 21 12 14 16 12 10 9 25 26 22 22
35 35 36 35 33 32 28 31 12 5 3 4 1 4 8 5 5 13 10 12 12 16 16 16 6 5 9 7 8 6 10 14 19 17 14 9 11 10 8 9 8 20 23 27 23
36 36 37 36 34 27 28 21 5 4 4 4 10 5 8 3 4 1 5 11 6 7 5 6 4 4 5 2 8 8 10 12 16 18 19 16 11 11 10 10 7 10 8 20 26
37 37 38 37 32 21 27 8 4 3 5 8 8 5 10 3 7 7 9 5 4 6 5 7 4 8 13 13 17 15 16 17 13 13 14 14 12 12 11 8 9 9 10 16 22
38 38 39 38 24 16 12 5 4 8 9 15 18 17 12 2 6 9 12 4 7 7 8 6 8 15 17 18 16 16 12 11 12 11 9 9 10 11 12 9 8 8 9 7 7
38 38 38 39 15 9 16 12 11 13 4 9 10 8 8 6 7 3 10 7 9 9 10 9 13 14 16 14 10 7 7 9 15 7 8 7 8 9 12 15 14 10 9 7 7
37 37 35 39 7 22 6 16 14 13 3 3 6 6 4 4 6 8 8 1 5 7 11 8 9 11 9 6 7 7 9 13 14 8 4 4 13 7 7 6 7 9 10 10 11
36 36 34 18 17 10 15 19 16 6 5 7 7 5 3 8 6 7 6 2 8 10 7 10 13 12 12 8 5 6 9 8 8 9 4 16 2 8 2 6 6 6 8 9 12
37 35 38 11 15 14 22 21 14 1 4 5 7 6 7 9 11 9 8 7 5 6 9 13 16 13 12 13 2 7 7 9 7 5 4 17 5 6 4 6 6 7 9 3 13
38 35 33 14 6 13 19 9 2 3 3 5 1 1 6 7 11 11 7 4 6 4 5 11 11 8 4 2 5 5 6 5 6 5 6 6 1 6 4 6 7 7 9 10 19
40 35 17 18 9 10 18 3 3 10 11 5 8 11 9 7 8 5 5 4 12 6 2 4 9 20 19 11 6 7 5 4 7 6 10 8 8 8 13 22 18 16 14 16 19
41 25 12 13 4 3 2 2 4 9 8 8 11 9 9 9 5 3 6 6 7 4 4 3 7 18 17 18 11 7 5 9 5 8 6 3 6 7 16 16 15 11 13 15 15
30 12 12 10 11 6 1 5 5 9 5 8 5 7 11 7 4 3 5 5 2 8 8 6 6 8 19 14 10 7 8 4 4 5 6 5 4 3 7 8 6 12 12 9 14
9 4 7 13 8 1 3 5 14 18 4 5 8 9 12 10 9 6 6 6 8 7 8 5 1 8 11 6 13 12 5 5 1 3 2 4 3 7 1 4 9 9 8 4 3
7 3 10 6 1 3 5 7 9 12 8 2 4 8 6 10 8 7 7 5 4 3 2 4 2 4 12 16 18 7 3 3 4 6 3 3 3 7 6 5 1 12 15 13 6
5 5 13 10 3 5 9 15 16 11 5 7 5 8 6 5 5 6 9 13 7 4 4 2 2 5 10 9 4 7 10 9 2 1 5 5 6 4 9 11 8 10 14 13 9
4 4 2 4 6 8 10 9 13 15 6 4 6 9 9 8 7 4 12 12 11 5 8 6 5 6 7 10 12 15 14 13 10 5 6 7 9 6 6 8 7 7 8 10 11
3 4 6 4 7 13 11 11 13 14 15 5 4 8 8 7 8 9 9 9 12 8 4 3 2 6 11 15 15 18 19 18 16 13 11 7 6 5 6 5 5 6 5 7 6
3 4 6 8 9 11 11 8 13 14 11 13 8 7 8 7 3 7 8 7 3 9 5 6 5 6 8 12 16 18 18 17 17 6 7 11 2 7 6 3 5 6 6 8 7
9 12 4 6 8 9 10 12 14 12 9 7 11 10 6 9 8 6 7 7 8 6 7 5 5 5 12 10 12 11 13 11 9 8 3 4 3 4 4 12 7 10 9 6 4

GFSSW_925_spd_108.txt.gz
Wind_Speed
24 23 22 21 21 22 23 22 22 22 21 19 17 17 18 19 18 11 7 10 3 9 9 13 9 10 7 3 7 3 4 3 7 7 7 10 3 3 17 22 20 8 9 22 33
26 25 24 23 23 24 24 22 25 24 19 17 16 17 16 16 13 13 21 16 9 10 12 14 7 8 3 5 4 6 6 18 13 17 5 13 10 10 7 15 14 4 15 31 33
28 27 27 25 25 25 23 27 26 19 18 18 17 15 12 10 4 7 7 4 13 11 8 7 10 6 5 2 5 5 8 11 16 23 19 13 15 6 12 15 12 17 26 24 28
31 31 30 28 27 27 27 30 21 19 20 19 14 10 6 1 2 3 1 7 12 11 8 4 4 5 4 6 7 4 11 6 6 19 7 14 6 7 12 20 13 23 29 25 23
33 33 31 31 31 31 31 29 21 20 18 13 8 4 1 1 9 7 4 5 9 9 7 5 4 5 5 4 6 4 7 5 3 7 17 17 15 12 12 12 19 21 23 24 24
35 36 35 35 34 34 36 27 20 21 12 8 4 1 2 2 5 9 9 5 5 7 5 7 6 6 5 6 2 5 6 10 8 5 6 9 12 6 20 9 15 24 25 24 24
38 38 38 37 36 36 33 24 29 15 7 4 4 1 1 10 1 10 10 6 6 11 4 11 11 3 4 6 6 5 7 7 9 10 12 7 11 11 16 5 18 20 20 19 23
39 40 40 38 37 36 27 30 20 5 2 2 3 3 6 7 6 12 16 12 9 9 14 14 16 3 2 2 8 4 4 5 8 7 9 6 11 21 14 8 17 20 20 24 24
40 41 41 39 38 29 28 27 5 3 2 1 2 1 8 9 3 9 16 9 8 16 13 14 2 3 5 3 5 5 4 6 9 5 6 6 9 14 7 5 5 19 21 23 22
40 42 42 40 40 25 28 7 6 3 3 2 3 3 6 2 6 3 4 14 3 0 0 1 5 1 4 5 4 6 3 5 7 11 11 9 8 8 10 6 3 14 18 22 23
41 43 42 41 33 21 25 4 6 4 3 5 3 5 11 13 3 3 3 1 2 3 2 3 4 8 12 10 12 5 6 12 16 16 4 11 8 10 10 5 3 10 11 16 20
40 42 43 40 22 14 17 5 1 6 8 9 16 11 22 14 4 3 6 3 3 5 2 4 6 13 11 8 11 10 10 13 12 8 2 8 9 6 6 7 5 2 5 19 23
40 42 43 40 14 14 6 14 16 13 2 9 6 5 6 8 5 4 10 5 5 4 7 6 11 12 6 12 12 11 6 6 5 4 4 2 8 7 11 6 5 3 1 7 5
39 41 42 42 5 21 7 19 20 15 3 6 3 6 4 4 4 6 15 7 2 4 4 5 4 7 9 7 4 2 3 3 9 7 6 5 5 8 6 9 5 4 6 12 12
38 40 42 30 16 8 11 23 25 1 4 3 3 4 1 5 2 3 13 2 5 7 2 8 7 11 10 8 2 8 3 4 4 6 4 8 3 8 6 8 8 10 10 8 10
39 40 43 16 13 11 19 26 4 4 2 2 4 3 1 2 4 2 2 4 2 2 2 8 5 4 10 10 4 5 3 7 5 4 3 8 5 4 6 7 8 8 12 15 7
40 40 32 14 5 14 19 5 4 4 5 5 4 3 3 5 5 7 5 4 5 3 6 7 3 4 8 9 10 10 6 4 5 5 6 2 4 7 6 5 3 7 12 13 15
42 36 24 20 13 15 9 5 3 4 4 2 5 8 2 3 7 2 1 4 6 3 2 3 8 6 9 4 5 8 5 4 6 4 8 5 2 3 6 6 4 5 10 15 13
38 27 14 7 2 2 5 4 5 2 7 3 5 4 5 9 4 6 4 3 3 3 6 2 5 5 8 6 3 10 7 5 2 2 3 2 4 4 3 4 8 10 11 12 12
31 15 13 9 7 3 5 4 4 5 6 4 4 4 4 8 8 10 4 5 3 7 4 0 3 3 5 6 2 2 6 6 4 4 4 5 1 4 6 7 8 12 8 4 4
10 4 6 11 10 5 2 5 6 7 13 3 1 3 4 2 2 5 6 5 4 2 6 2 3 7 5 4 5 9 6 4 2 3 2 2 5 6 4 3 7 7 8 7 5
6 3 3 5 3 0 2 4 8 15 13 8 5 6 3 6 3 2 3 2 8 2 1 3 5 1 6 6 10 6 4 3 3 7 3 3 6 1 3 1 3 5 8 7 5
3 3 10 3 1 2 6 6 4 6 9 3 2 4 1 2 4 4 5 6 9 2 6 3 2 4 9 7 7 3 5 3 2 2 5 2 6 3 4 1 4 4 5 5 5
3 3 4 4 2 3 6 6 8 8 5 8 4 3 4 4 2 4 5 5 8 6 11 7 3 5 5 6 5 7 13 10 1 1 4 5 4 3 5 6 4 5 6 2 3
1 4 2 3 5 6 2 4 6 7 2 3 7 6 5 4 5 6 6 8 5 4 4 4 1 1 4 5 5 9 12 13 10 9 4 5 4 4 6 6 7 6 4 5 5
1 2 5 4 4 5 3 4 5 10 4 11 3 5 8 6 3 3 3 3 4 6 2 3 3 1 3 7 8 10 9 7 5 4 2 3 4 4 6 4 2 5 6 5 0
4 6 3 4 4 3 2 6 14 9 8 6 2 3 3 3 1 2 3 4 6 3 4 3 3 2 6 7 8 6 3 3 2 2 3 3 5 6 3 4 3 7 6 6 3

GFSSW_925_spd_111.txt.gz
Wind_Speed
25 25 24 22 21 21 22 19 23 23 17 15 14 14 15 15 13 8 6 6 4 13 11 17 9 8 6 1 2 2 4 2 4 4 5 6 3 3 6 8 8 8 5 9 23
28 27 26 25 24 23 21 23 25 17 15 15 15 14 13 12 9 10 14 9 11 19 19 14 6 8 2 4 4 3 4 8 5 4 6 6 3 4 3 4 4 8 7 24 29
31 31 29 28 27 26 25 26 20 16 16 18 15 11 8 7 3 6 4 11 16 19 12 10 10 7 3 4 4 6 5 6 9 14 13 9 12 4 2 10 9 6 16 19 25
34 34 33 33 31 31 30 28 19 14 18 15 10 5 2 1 3 1 3 11 19 19 10 7 5 4 3 4 5 3 8 7 8 8 7 10 5 6 10 22 10 12 23 24 26
36 36 37 36 34 32 34 25 15 20 14 9 4 1 3 1 7 4 6 15 17 19 9 6 6 5 3 3 3 6 5 4 8 8 8 13 12 8 12 13 16 14 20 22 24
37 38 39 39 38 37 31 23 25 17 5 3 3 2 2 1 1 5 10 13 12 16 9 8 7 7 3 3 1 5 7 8 7 5 6 7 9 6 8 11 10 20 23 18 16
39 41 41 41 39 38 26 29 23 5 2 2 2 3 2 8 3 7 10 5 8 12 5 9 6 2 1 5 3 5 6 9 13 5 6 7 6 6 10 6 11 18 18 20 26
40 42 43 42 42 28 27 25 6 5 5 4 3 3 6 2 4 10 12 10 8 9 9 6 8 3 4 2 8 4 4 4 6 4 5 4 9 11 11 3 11 18 19 22 28
41 43 44 43 42 25 28 9 6 6 5 4 4 2 6 4 4 7 16 7 13 12 8 4 5 3 4 4 5 6 3 4 9 3 4 3 14 11 7 5 7 14 20 21 22
41 43 44 42 35 24 26 6 6 4 4 2 1 2 4 3 4 3 11 14 3 3 3 3 4 2 3 4 3 4 3 3 6 9 11 15 9 12 6 5 7 9 16 20 19
41 43 44 40 30 21 24 2 6 4 2 3 3 4 6 8 8 5 5 7 3 6 2 3 3 7 11 9 7 4 5 6 9 16 1 10 7 8 8 3 4 5 8 15 19
40 42 44 36 22 15 19 6 5 8 8 6 9 8 14 4 4 3 8 4 2 3 3 5 5 11 3 6 7 7 4 10 9 12 6 8 9 7 6 4 4 5 4 9 14
40 41 44 38 12 13 9 7 20 10 1 8 5 4 4 11 6 5 9 4 4 2 4 6 10 4 3 7 4 4 6 6 10 3 1 2 9 8 11 5 11 9 8 9 3
39 40 43 41 5 18 7 15 21 4 4 5 4 6 4 4 3 5 11 6 2 5 4 5 4 2 6 6 6 1 7 7 6 3 4 3 3 6 9 9 16 11 11 9 11
39 40 40 29 13 6 7 20 16 4 3 2 3 0 2 3 3 2 3 3 4 4 4 7 3 7 6 5 4 7 1 3 3 4 3 4 5 7 6 9 7 6 4 8 8
39 39 39 13 14 7 15 20 2 4 1 3 1 4 2 1 3 2 3 2 1 1 1 7 3 3 3 2 4 3 5 7 5 3 4 4 4 5 3 3 7 4 4 1 6
41 40 30 14 4 10 17 3 5 2 4 5 2 4 1 4 4 5 5 3 5 2 4 6 1 3 3 7 7 12 7 4 4 5 5 4 2 7 3 3 3 7 7 8 4
42 38 23 13 11 11 5 5 1 1 4 3 4 3 3 7 3 5 2 2 1 4 2 3 6 3 6 4 2 4 5 4 4 3 6 2 4 4 6 2 4 7 7 6 7
40 29 11 4 3 3 5 3 4 2 4 6 7 5 5 4 2 8 4 2 4 2 6 2 5 3 4 2 4 5 4 4 3 3 1 3 2 6 2 1 3 7 7 9 9
33 15 8 5 3 5 5 3 2 2 7 5 1 2 4 5 5 7 5 4 2 2 3 2 2 3 5 4 5 3 3 4 4 3 3 4 3 4 5 2 1 6 7 9 10
10 5 8 4 1 5 3 4 4 5 7 2 3 2 2 2 3 3 3 1 6 5 5 4 3 5 2 2 4 5 4 4 3 3 2 1 6 4 2 3 5 7 6 8 8
6 3 3 7 4 1 1 2 6 7 4 5 5 4 2 2 1 2 2 2 8 2 2 2 4 2 4 2 5 1 5 4 4 6 2 3 6 4 3 2 3 7 7 7 7
3 3 5 3 1 3 5 5 2 4 5 6 4 2 1 3 2 3 1 4 6 6 2 1 2 3 8 6 6 4 1 3 3 3 4 3 6 3 3 5 5 7 9 7 7
2 4 4 4 1 3 4 4 5 6 3 5 4 5 4 2 1 3 4 3 5 4 8 8 3 5 5 6 2 3 4 2 5 3 4 6 7 5 6 6 6 7 7 9 8
1 3 2 3 3 3 2 2 4 7 6 7 5 4 2 4 5 3 5 6 4 6 4 4 2 5 6 7 4 5 8 4 3 7 5 7 5 5 5 8 6 6 6 9 8
1 1 4 3 3 5 3 4 5 4 3 6 3 5 4 4 3 1 2 1 4 5 3 3 3 2 5 6 7 6 9 6 5 3 4 4 6 3 6 6 5 6 6 7 7
2 2 3 3 4 2 1 3 5 6 5 3 5 3 3 5 6 7 6 4 6 2 2 3 5 3 10 5 5 7 6 5 4 4 4 4 6 5 7 6 7 6 5 7 7